| time (UTC) | temp C | wind direction | speed KPH | gust KPH | rain 1hr cm | rain 24hr cm | rain mn cm | humidity % | barometer mb |
| 20260905184513 | 25 | 51 | 1.6 | 4.8 | 0.00 | 0.00 | 0.00 | 48 | 1007.9 |
| 20260905183015 | 24 | 306 | 1.6 | 8.0 | 0.00 | 0.00 | 0.00 | 49 | 1007.9 |
| 20260905181600 | 24 | 6 | 1.6 | 6.4 | 0.00 | 0.00 | 0.00 | 45 | 1008.1 |
| 20260905180113 | 23 | 357 | 1.6 | 8.0 | 0.00 | 0.00 | 0.00 | 45 | 1008.1 |
| 20260905174554 | 23 | 298 | 0.0 | 8.0 | 0.00 | 0.00 | 0.00 | 38 | 1008.2 |
| 20260905173112 | 23 | 359 | 1.6 | 4.8 | 0.00 | 0.00 | 0.00 | 38 | 1008.3 |
| 20260905171554 | 22 | 74 | 1.6 | 8.0 | 0.00 | 0.00 | 0.00 | 35 | 1008.3 |
| 20260905170148 | 22 | 328 | 1.6 | 6.4 | 0.00 | 0.00 | 0.00 | 35 | 1008.5 |
| 20260905164547 | 22 | 244 | 0.0 | 6.4 | 0.00 | 0.00 | 0.00 | 36 | 1008.4 |
| 20260905163045 | 22 | 255 | 0.0 | 3.2 | 0.00 | 0.00 | 0.00 | 37 | 1008.3 |
| 20260905161526 | 22 | 281 | 0.0 | 6.4 | 0.00 | 0.00 | 0.00 | 37 | 1008.4 |
| 20260905160044 | 22 | 299 | 1.6 | 9.7 | 0.00 | 0.00 | 0.00 | 39 | 1008.5 |
| 20260905154508 | 21 | 356 | 0.0 | 4.8 | 0.00 | 0.00 | 0.00 | 38 | 1008.4 |
| 20260905153008 | 21 | 342 | 1.6 | 4.8 | 0.00 | 0.00 | 0.00 | 38 | 1008.5 |
| 20260905151506 | 21 | 349 | 0.0 | 3.2 | 0.00 | 0.00 | 0.00 | 38 | 1008.6 |
| 20260905150004 | 21 | 349 | 0.0 | 3.2 | 0.00 | 0.00 | 0.00 | 38 | 1008.5 |
| 20260905144501 | 20 | 321 | 0.0 | 4.8 | 0.00 | 0.00 | 0.00 | 39 | 1008.6 |
| 20260905143159 | 20 | 269 | 0.0 | 6.4 | 0.00 | 0.00 | 0.00 | 39 | 1008.4 |
| 20260905141526 | 20 | 349 | 1.6 | 6.4 | 0.00 | 0.00 | 0.00 | 40 | 1008.4 |
| 20260905140024 | 19 | 18 | 1.6 | 11.3 | 0.00 | 0.00 | 0.00 | 42 | 1008.6 |
| 20260905134523 | 20 | 280 | 0.0 | 6.4 | 0.00 | 0.00 | 0.00 | 43 | 1008.6 |
| 20260905131552 | 19 | 300 | 0.0 | 1.6 | 0.00 | 0.00 | 0.00 | 43 | 1008.8 |
| 20260905130051 | 18 | 288 | 0.0 | 0.0 | 0.00 | 0.00 | 0.00 | 44 | 1008.8 |
| 20260905124554 | 18 | 288 | 0.0 | 1.6 | 0.00 | 0.00 | 0.00 | 43 | 1008.9 |
| 20260905123148 | 17 | 276 | 0.0 | 1.6 | 0.00 | 0.00 | 0.00 | 43 | 1008.9 |
| 20260905121523 | 17 | 269 | 0.0 | 1.6 | 0.00 | 0.00 | 0.00 | 42 | 1008.7 |
| 20260905120036 | 16 | 319 | 0.0 | 1.6 | 0.00 | 0.00 | 0.00 | 43 | 1008.8 |
| 20260905114504 | 16 | 256 | 0.0 | 1.6 | 0.00 | 0.00 | 0.00 | 45 | 1008.5 |
| 20260905113003 | 15 | 219 | 0.0 | 0.0 | 0.00 | 0.00 | 0.00 | 44 | 1008.3 |
| 20260905111627 | 15 | 228 | 0.0 | 0.0 | 0.00 | 0.00 | 0.00 | 43 | 1008.2 |
| 20260905110041 | 15 | 333 | 0.0 | 0.0 | 0.00 | 0.00 | 0.00 | 39 | 1008.1 |
| 20260905104522 | 15 | 333 | 0.0 | 0.0 | 0.00 | 0.00 | 0.00 | 37 | 1008.0 |
| 20260905103028 | 15 | 333 | 0.0 | 0.0 | 0.00 | 0.00 | 0.00 | 37 | 1007.9 |
| 20260905101505 | 15 | 333 | 0.0 | 0.0 | 0.00 | 0.00 | 0.00 | 44 | 1007.8 |
| 20260905100000 | 16 | 333 | 0.0 | 0.0 | 0.00 | 0.00 | 0.00 | 49 | 1007.7 |
| 20260905094559 | 16 | 333 | 0.0 | 0.0 | 0.00 | 0.00 | 0.00 | 51 | 1007.7 |
| 20260905093117 | 16 | 333 | 0.0 | 0.0 | 0.00 | 0.00 | 0.00 | 52 | 1007.7 |
| 20260905091558 | 16 | 333 | 0.0 | 0.0 | 0.00 | 0.00 | 0.00 | 53 | 1007.6 |
| 20260905090052 | 16 | 339 | 0.0 | 0.0 | 0.00 | 0.08 | 0.00 | 56 | 1007.6 |
| 20260905084551 | 17 | 340 | 0.0 | 1.6 | 0.00 | 0.08 | 0.00 | 57 | 1007.7 |
| 20260905083047 | 17 | 351 | 0.0 | 3.2 | 0.00 | 0.08 | 0.00 | 56 | 1007.7 |
| 20260905081530 | 17 | 311 | 0.0 | 3.2 | 0.00 | 0.08 | 0.00 | 56 | 1007.7 |
| 20260905080032 | 17 | 310 | 0.0 | 1.6 | 0.00 | 0.71 | 0.08 | 56 | 1007.7 |
| 20260905074510 | 17 | 347 | 0.0 | 4.8 | 0.00 | 0.71 | 0.08 | 56 | 1007.7 |
| 20260905073009 | 18 | 327 | 0.0 | 1.6 | 0.00 | 0.71 | 0.08 | 55 | 1007.6 |
| 20260905071550 | 18 | 358 | 0.0 | 3.2 | 0.00 | 0.71 | 0.08 | 54 | 1007.6 |
| 20260905070055 | 18 | 358 | 0.0 | 3.2 | 0.00 | 0.79 | 0.08 | 53 | 1007.8 |
| 20260905064545 | 18 | 359 | 0.0 | 4.8 | 0.00 | 0.79 | 0.08 | 52 | 1007.8 |
| 20260905063033 | 18 | 326 | 1.6 | 4.8 | 0.00 | 0.79 | 0.08 | 51 | 1007.8 |
| 20260905061521 | 18 | 333 | 0.0 | 4.8 | 0.00 | 0.79 | 0.08 | 51 | 1008.0 |
| 20260905060023 | 18 | 316 | 0.0 | 4.8 | 0.00 | 0.81 | 0.08 | 52 | 1008.1 |
| 20260905054532 | 18 | 310 | 0.0 | 6.4 | 0.00 | 0.81 | 0.08 | 53 | 1008.4 |
| 20260905053020 | 18 | 313 | 0.0 | 3.2 | 0.00 | 0.81 | 0.08 | 48 | 1008.5 |
| 20260905051532 | 17 | 316 | 0.0 | 1.6 | 0.00 | 0.81 | 0.08 | 41 | 1008.6 |
| 20260905050018 | 16 | 316 | 0.0 | 0.0 | 0.00 | 0.81 | 0.08 | 43 | 1008.8 |
| 20260905044518 | 16 | 317 | 0.0 | 0.0 | 0.00 | 0.81 | 0.08 | 43 | 1008.9 |
| 20260905043017 | 16 | 317 | 0.0 | 0.0 | 0.00 | 0.81 | 0.08 | 43 | 1009.0 |
| 20260905041602 | 17 | 316 | 0.0 | 0.0 | 0.00 | 0.81 | 0.08 | 43 | 1009.0 |
| 20260905040058 | 17 | 317 | 0.0 | 0.0 | 0.00 | 0.81 | 0.08 | 42 | 1009.1 |
| 20260905034541 | 17 | 316 | 0.0 | 0.0 | 0.00 | 0.81 | 0.08 | 42 | 1009.0 |
| 20260905033041 | 17 | 316 | 0.0 | 0.0 | 0.00 | 0.81 | 0.08 | 42 | 1008.9 |
| 20260905031521 | 17 | 316 | 0.0 | 0.0 | 0.00 | 0.81 | 0.08 | 42 | 1008.9 |
| 20260905030020 | 17 | 316 | 0.0 | 0.0 | 0.00 | 0.81 | 0.08 | 43 | 1008.8 |
| 20260905024503 | 17 | 316 | 0.0 | 0.0 | 0.00 | 0.81 | 0.08 | 43 | 1008.7 |
| 20260905023003 | 17 | 316 | 0.0 | 0.0 | 0.00 | 0.81 | 0.08 | 42 | 1008.8 |
| 20260905021544 | 17 | 316 | 0.0 | 0.0 | 0.00 | 0.81 | 0.08 | 42 | 1008.7 |
| 20260905020042 | 17 | 316 | 0.0 | 0.0 | 0.00 | 0.81 | 0.08 | 41 | 1008.7 |
| 20260905014526 | 17 | 316 | 0.0 | 0.0 | 0.00 | 0.81 | 0.08 | 38 | 1008.8 |
| 20260905013025 | 17 | 316 | 0.0 | 0.0 | 0.00 | 0.81 | 0.08 | 37 | 1008.8 |
| 20260905011504 | 18 | 317 | 0.0 | 0.0 | 0.00 | 0.81 | 0.08 | 37 | 1008.9 |
| 20260905010005 | 18 | 317 | 0.0 | 0.0 | 0.00 | 0.81 | 0.08 | 36 | 1008.8 |
| 20260905004645 | 18 | 317 | 0.0 | 0.0 | 0.00 | 0.81 | 0.08 | 35 | 1008.9 |
| 20260905003044 | 19 | 317 | 0.0 | 0.0 | 0.00 | 0.81 | 0.08 | 35 | 1008.7 |
| 20260905001524 | 19 | 317 | 0.0 | 0.0 | 0.00 | 0.81 | 0.08 | 35 | 1008.6 |
| 20260905000022 | 20 | 317 | 0.0 | 0.0 | 0.00 | 0.81 | 0.08 | 43 | 1008.6 |
| 20260904234504 | 20 | 317 | 0.0 | 0.0 | 0.00 | 0.81 | 0.08 | 48 | 1008.4 |
| 20260904233003 | 20 | 317 | 0.0 | 0.0 | 0.00 | 0.81 | 0.08 | 54 | 1008.3 |
| 20260904231544 | 21 | 317 | 0.0 | 0.0 | 0.00 | 0.81 | 0.08 | 58 | 1008.3 |
| 20260904230045 | 21 | 316 | 0.0 | 0.0 | 0.00 | 0.81 | 0.08 | 63 | 1008.3 |
| 20260904224527 | 22 | 316 | 0.0 | 0.0 | 0.00 | 0.81 | 0.08 | 63 | 1008.4 |
| 20260904223024 | 22 | 316 | 0.0 | 0.0 | 0.00 | 0.81 | 0.08 | 61 | 1008.4 |
| 20260904221521 | 23 | 316 | 0.0 | 0.0 | 0.00 | 0.81 | 0.08 | 60 | 1008.3 |
| 20260904220007 | 23 | 316 | 0.0 | 0.0 | 0.00 | 0.81 | 0.08 | 59 | 1008.2 |
| 20260904214554 | 24 | 316 | 0.0 | 0.0 | 0.00 | 0.81 | 0.08 | 56 | 1008.2 |
| 20260904213053 | 25 | 316 | 0.0 | 3.2 | 0.00 | 0.81 | 0.08 | 54 | 1008.1 |
| 20260904211556 | 25 | 333 | 0.0 | 3.2 | 0.00 | 0.81 | 0.08 | 50 | 1008.2 |
| 20260904210058 | 25 | 216 | 0.0 | 6.4 | 0.00 | 0.81 | 0.08 | 51 | 1008.3 |
| 20260904204551 | 26 | 323 | 0.0 | 4.8 | 0.00 | 0.81 | 0.08 | 51 | 1008.3 |
| 20260904203051 | 25 | 267 | 0.0 | 4.8 | 0.00 | 0.81 | 0.08 | 51 | 1008.3 |
| 20260904201553 | 25 | 264 | 0.0 | 4.8 | 0.00 | 0.81 | 0.08 | 50 | 1008.4 |
| 20260904200111 | 25 | 228 | 0.0 | 4.8 | 0.00 | 0.81 | 0.08 | 50 | 1008.5 |
| 20260904194618 | 25 | 317 | 0.0 | 4.8 | 0.00 | 0.81 | 0.08 | 49 | 1008.4 |
| 20260904193039 | 25 | 281 | 0.0 | 1.6 | 0.00 | 0.81 | 0.08 | 52 | 1008.5 |
| 20260904191513 | 26 | 347 | 0.0 | 4.8 | 0.00 | 0.81 | 0.08 | 48 | 1008.7 |
| 20260904190013 | 26 | 351 | 0.0 | 11.3 | 0.00 | 0.81 | 0.08 | 46 | 1008.8 |